Theta_e
313 312 311 309 309 309 309 310 310 308 307 306 306 306 306 306 306 307 307 307 307 309 310 311 311 311 313 312 314 315 316 314 315 315 316 316 315 315 316 317 317 317 317
312 311 310 310 310 310 310 310 308 305 305 306 307 308 308 307 307 307 307 307 307 309 310 311 311 311 313 314 315 316 316 316 315 313 315 314 315 315 315 316 317 317 317
311 310 310 310 310 310 311 309 306 305 306 307 308 309 307 308 308 307 308 308 308 309 310 311 312 312 313 314 315 315 317 317 316 315 314 316 316 316 316 316 316 316 317
311 311 311 311 310 311 310 308 306 306 306 307 308 309 309 309 309 309 310 310 309 308 309 311 312 313 315 316 316 316 316 316 316 315 315 315 315 316 316 316 316 317 317
311 311 311 311 312 310 309 308 307 306 306 306 308 309 310 310 310 310 309 308 308 308 310 312 316 317 317 317 317 317 317 316 315 315 314 314 315 315 316 316 316 316 316
311 311 312 313 312 310 309 308 308 307 307 307 308 309 310 310 310 309 309 309 309 309 311 315 317 318 318 316 316 317 317 317 316 315 313 311 312 312 313 314 315 317 317
311 312 313 312 311 310 309 308 307 307 307 308 308 309 309 309 310 310 310 310 310 312 315 316 315 315 314 314 314 314 313 314 314 314 313 313 314 316 317 315 315 316 316
312 312 313 313 311 311 310 309 309 308 307 307 308 309 309 309 309 310 311 313 315 315 316 316 316 316 316 313 313 316 317 317 317 316 316 315 316 317 317 317 317 316 316
312 313 313 313 312 311 311 310 310 309 308 308 309 308 308 306 307 311 313 314 316 317 317 316 315 315 313 313 314 317 315 316 317 316 317 317 316 317 316 317 316 317 317
313 314 313 313 313 312 312 311 311 311 309 308 309 309 308 307 310 312 313 315 315 313 312 313 312 312 314 315 316 315 315 315 316 317 317 317 317 317 316 317 316 317 316
314 314 313 313 314 312 312 311 311 312 310 309 309 308 307 309 312 313 314 315 314 311 311 312 312 314 313 316 314 315 316 316 316 316 315 315 316 317 317 316 316 316 316
314 314 313 313 314 313 312 312 311 311 311 308 308 307 307 311 312 312 313 313 315 315 312 312 313 312 312 314 315 316 315 315 315 314 314 315 315 316 316 316 316 316 316
314 314 313 314 314 313 311 311 311 310 310 308 307 307 307 309 313 312 312 313 313 315 316 316 313 312 312 313 314 315 316 316 317 315 315 316 315 315 316 316 316 316 316
314 314 314 314 314 313 312 311 311 311 310 309 308 307 307 308 312 313 313 313 314 314 316 316 315 313 312 312 313 314 314 317 317 316 316 315 315 315 315 314 315 314 315
315 314 314 314 314 314 313 312 312 312 312 313 311 309 308 307 311 312 313 313 313 314 314 313 312 311 311 312 314 314 315 316 317 317 316 315 315 315 314 314 314 314 314
314 313 313 312 313 313 313 313 312 312 312 313 312 309 309 308 308 312 313 313 313 313 312 311 310 312 313 313 314 315 314 315 316 317 316 316 314 314 315 314 314 314 314
311 312 311 311 310 310 310 310 310 312 312 312 312 312 310 309 308 309 312 312 313 311 311 312 313 311 313 314 314 314 314 315 317 317 316 316 316 314 313 314 314 315 315
299 304 306 311 313 312 311 310 310 309 310 312 311 312 312 309 308 308 308 310 310 312 311 311 312 314 314 314 314 314 314 315 315 316 317 317 316 314 314 314 314 317 317
293 297 300 302 304 307 312 311 311 310 309 310 311 311 312 311 309 306 306 306 308 310 312 312 312 313 313 313 314 313 314 314 315 315 316 317 318 317 317 316 316 316 317
291 294 297 298 300 301 302 304 305 309 310 310 309 309 311 310 308 306 305 306 305 306 310 311 312 312 312 313 313 312 314 314 314 315 315 316 317 317 317 317 318 318 317
292 293 292 293 294 295 297 297 299 302 303 307 311 310 310 309 308 307 306 305 305 306 306 309 312 312 312 312 312 311 312 313 314 314 315 314 313 314 317 318 318 317 316
291 290 288 288 289 291 292 293 295 296 296 299 302 302 304 309 309 308 307 307 308 308 308 307 308 311 313 312 312 314 312 312 313 314 314 315 314 312 313 316 317 316 316
289 288 287 287 286 287 287 289 291 293 294 295 295 298 301 302 304 308 308 307 308 308 308 307 307 308 311 313 312 314 314 314 314 314 314 314 314 313 311 313 314 314 314
287 287 287 287 286 286 286 287 287 288 290 291 294 295 294 296 300 301 305 309 307 307 309 308 308 309 311 312 313 313 314 314 314 314 314 314 315 314 313 312 312 313 314
287 287 286 286 286 286 286 287 287 287 288 289 292 293 294 295 297 299 300 305 309 307 307 309 308 309 310 312 312 313 314 314 315 315 314 314 315 315 316 315 314 312 313
286 286 286 286 286 287 286 287 287 287 287 287 288 290 292 294 294 298 300 300 306 310 308 308 309 309 309 309 309 312 313 314 316 315 314 314 314 314 316 316 316 315 313
Wind_Speed
9 4 3 3 5 10 15 15 15 20 22 23 25 28 29 26 22 19 18 17 18 14 14 16 16 14 19 22 21 20 21 20 9 12 14 16 14 11 9 8 9 11 12
6 3 3 5 10 14 15 12 16 19 18 20 24 27 27 23 19 18 16 13 14 17 17 15 18 21 22 20 19 20 21 22 21 14 17 16 14 11 11 11 12 12 13
3 4 6 10 13 16 10 12 16 15 17 19 22 24 22 19 16 14 13 15 16 18 19 20 21 21 23 21 20 20 20 20 21 20 16 14 11 11 11 12 13 16 17
8 8 10 13 14 9 10 13 12 14 15 18 21 20 20 15 9 8 10 13 15 17 16 17 20 21 22 19 16 17 18 17 18 19 18 17 14 11 11 11 11 12 14
11 10 12 13 11 8 12 11 12 14 16 18 20 17 15 13 11 12 14 14 15 16 15 14 18 17 12 11 13 16 15 16 15 16 14 11 11 9 11 11 13 11 10
13 12 12 11 10 11 13 10 12 13 16 16 17 16 15 14 14 15 16 20 15 12 14 10 6 2 3 2 3 5 7 11 13 11 12 11 18 16 16 15 13 5 2
15 12 11 11 13 13 13 13 12 14 16 17 16 16 16 16 15 18 19 17 15 11 9 6 1 3 3 2 1 5 8 11 14 13 13 12 10 9 11 12 11 9 5
16 15 13 14 16 14 14 14 15 15 18 18 18 17 18 18 17 17 15 11 10 8 7 5 4 2 2 3 6 8 6 6 8 12 10 11 12 12 9 10 15 12 10
22 19 16 16 20 18 17 17 15 16 19 19 18 17 17 21 15 13 12 7 5 5 3 4 3 3 3 7 7 2 2 6 5 2 1 2 3 4 6 9 16 16 8
26 22 19 17 21 22 19 18 18 17 20 19 18 15 16 18 8 8 7 3 6 7 4 2 2 1 5 7 2 3 5 6 7 7 7 7 6 6 7 10 17 14 12
29 25 21 20 21 23 21 19 19 19 20 20 16 15 14 10 8 8 5 2 2 2 4 3 2 1 5 4 6 6 5 7 6 6 5 7 7 6 7 8 9 19 13
30 26 25 23 22 24 22 21 19 18 20 21 16 15 12 6 10 7 4 3 5 5 3 1 3 1 3 2 2 2 2 3 2 1 4 2 7 9 11 9 9 12 7
30 28 28 26 25 24 22 21 19 18 19 23 17 15 14 7 8 7 6 6 8 9 7 5 5 2 1 2 2 2 3 3 4 2 4 4 9 10 14 12 10 9 8
30 31 30 28 27 26 25 22 21 19 21 22 21 17 15 12 11 11 8 7 6 8 8 6 7 7 6 4 4 2 3 3 2 3 9 11 13 15 14 13 19 21 22
31 37 35 30 30 29 30 27 25 23 22 22 23 20 17 15 16 14 11 9 8 8 8 7 7 8 7 5 3 3 3 3 3 7 10 13 15 15 13 17 17 17 19
26 26 29 32 34 32 32 33 29 27 23 23 21 21 21 20 15 17 16 14 12 10 8 9 8 8 8 8 7 7 4 8 7 9 12 12 14 13 11 13 13 15 19
27 26 19 17 23 24 28 29 25 32 27 25 24 24 25 24 20 19 21 20 18 15 14 13 13 12 12 10 8 6 5 7 9 12 11 11 12 12 13 13 11 10 11
30 26 26 26 19 21 23 26 27 26 22 28 28 26 24 27 27 25 22 23 20 22 21 21 18 18 16 12 12 9 9 8 13 15 14 13 12 13 12 11 9 8 10
29 25 27 25 23 28 24 24 26 25 26 27 32 31 29 30 30 31 27 27 28 27 30 29 27 24 21 18 14 12 10 10 9 17 15 13 14 14 13 12 10 10 9
29 26 28 26 26 25 25 25 25 26 26 25 25 29 33 28 30 35 37 38 36 34 30 33 35 33 29 25 21 17 16 14 14 12 14 17 18 19 18 16 17 16 18
25 25 28 26 26 26 26 26 29 26 26 29 27 28 31 35 32 34 38 43 44 41 39 37 36 37 36 31 27 25 21 19 18 17 17 16 18 17 20 21 21 20 19
24 23 25 25 26 26 28 28 27 26 28 31 31 34 35 33 32 29 32 38 44 48 47 42 39 40 40 38 33 27 26 25 22 20 19 17 18 18 15 19 20 18 18
24 26 26 27 27 29 28 28 29 28 28 28 30 32 32 30 27 29 32 35 41 45 46 44 41 37 40 41 39 35 29 27 24 24 23 21 19 21 19 16 15 16 17
26 24 23 24 25 28 29 31 33 33 33 33 34 26 29 36 33 31 32 33 36 42 46 46 46 42 38 41 42 40 34 30 27 25 26 25 22 19 18 18 18 17 15
25 23 22 22 24 25 29 30 32 35 36 37 34 31 34 31 34 36 35 37 36 35 40 46 47 46 43 39 40 44 39 33 31 26 27 26 24 25 22 19 20 20 18
28 27 26 26 25 28 29 31 33 36 36 37 39 38 36 33 33 37 36 38 39 37 38 40 46 51 46 41 38 39 43 38 34 31 29 27 29 28 27 23 19 22 22
Wind_Direction
165 179 239 302 304 302 302 311 313 320 325 326 328 324 318 315 313 313 298 286 295 296 280 276 277 276 276 283 273 262 257 239 237 262 262 268 277 270 276 261 241 237 243
184 219 246 283 294 298 304 307 318 326 326 330 332 326 316 315 324 326 316 298 294 303 295 284 279 284 282 276 265 258 253 249 228 245 265 269 275 278 276 264 257 256 255
232 244 268 282 296 302 292 306 318 319 326 336 335 333 324 318 325 333 324 312 308 304 296 289 286 285 281 275 260 256 252 245 234 239 257 274 274 282 275 267 260 255 254
232 246 274 291 300 281 289 304 310 319 325 335 338 336 325 323 322 353 334 322 317 310 305 294 287 283 278 269 256 253 249 238 237 241 253 263 269 264 251 258 261 257 259
248 269 294 300 289 264 290 297 309 313 323 332 335 333 324 337 340 335 327 323 318 313 312 312 302 275 263 262 260 259 240 235 233 235 246 255 249 237 231 253 250 263 260
255 276 300 289 245 259 285 297 307 310 318 331 338 334 330 323 325 330 323 321 321 316 313 326 357 115 165 179 241 240 230 223 220 217 231 237 257 261 261 244 232 173 215
258 272 293 258 233 260 281 282 294 302 311 321 320 328 327 325 322 324 325 318 311 307 303 311 268 140 151 163 258 262 253 249 245 243 243 249 261 273 270 231 219 198 192
258 266 274 245 242 259 274 280 287 299 301 311 311 313 318 322 320 326 321 320 317 310 298 285 222 234 219 304 296 290 279 272 243 234 257 270 268 268 270 239 216 185 160
254 262 265 254 246 254 266 278 294 294 302 308 310 308 316 322 321 322 321 339 353 44 105 151 221 221 293 292 285 274 79 85 119 130 92 6 318 248 206 175 154 142 134
254 262 263 263 251 250 262 275 290 294 297 305 307 306 313 320 326 309 317 1 100 90 93 135 144 20 346 318 214 183 132 109 121 118 89 78 99 79 145 187 168 145 129
260 262 263 265 259 250 260 272 286 291 292 302 301 311 313 317 320 307 322 279 146 117 85 109 148 67 7 73 125 123 101 114 108 123 90 81 93 123 115 139 163 167 144
265 265 265 266 262 251 256 268 279 286 285 296 296 307 316 289 299 296 298 279 243 237 246 167 135 92 53 82 97 80 97 117 115 128 310 139 104 117 116 128 146 128 155
265 265 264 266 261 254 252 261 270 281 281 287 291 290 303 289 267 287 282 279 250 237 247 249 228 224 348 28 1 280 269 269 295 310 59 98 149 127 131 127 135 154 136
267 267 265 260 259 253 251 258 262 269 277 284 281 273 280 284 250 260 265 271 240 217 221 237 238 252 262 292 303 305 290 253 275 61 110 96 126 141 131 125 121 130 135
291 279 268 259 258 256 254 256 258 262 266 277 281 274 260 268 258 240 251 253 234 226 232 231 232 242 257 270 280 295 269 230 186 146 137 124 136 137 120 137 131 131 134
318 292 281 273 262 253 256 261 258 260 263 265 273 270 267 259 266 240 242 245 241 242 242 238 233 233 247 264 283 273 222 204 192 170 148 151 153 149 133 151 131 141 144
5 353 337 328 311 293 285 267 258 263 259 258 257 266 259 252 250 249 241 244 243 239 237 237 236 233 243 265 263 240 189 186 182 181 168 163 165 174 168 165 172 167 161
6 3 355 340 338 316 296 280 269 263 255 256 251 257 256 246 242 240 239 243 241 237 238 240 235 233 235 246 245 245 225 177 192 193 190 188 184 179 184 193 183 164 168
354 352 348 339 345 339 331 309 284 271 263 260 257 249 249 246 247 241 237 233 238 239 236 237 239 235 236 240 244 239 230 226 201 200 193 195 199 207 206 206 215 215 198
348 347 348 344 342 338 338 337 339 321 283 264 257 254 248 242 234 234 229 231 235 238 238 238 237 237 233 234 237 239 228 225 227 214 209 216 215 213 216 216 220 209 216
351 350 350 346 343 340 336 335 326 327 318 322 281 262 253 245 235 228 227 226 229 234 237 238 237 238 235 230 231 237 233 228 223 227 220 212 205 203 210 211 218 223 225
356 351 352 348 342 337 329 322 317 317 317 316 314 312 314 269 241 235 229 230 233 234 237 235 235 234 232 228 224 225 225 225 231 228 226 230 215 206 200 203 205 210 220
349 344 339 341 341 337 334 328 319 311 307 303 299 304 307 304 304 260 236 234 234 232 235 233 233 230 232 229 221 218 216 216 218 223 226 227 220 209 201 195 200 203 197
338 332 335 329 330 333 333 330 325 319 309 305 297 292 294 294 295 290 290 248 233 231 232 231 230 230 228 228 224 219 220 221 221 221 216 215 217 209 207 199 202 199 199
326 318 315 318 325 326 326 327 327 319 311 304 291 293 291 287 289 283 277 283 239 230 227 225 225 226 225 225 225 222 216 217 218 217 212 213 210 212 211 210 205 206 202
328 322 314 311 315 320 319 318 316 316 307 301 291 283 279 275 286 278 274 270 274 230 228 223 219 223 219 219 223 221 219 215 212 213 210 209 212 209 207 208 214 212 210